Station 44034 - Buoy I01 - Eastern Maine Shelf Image indicating link to RSS feed of recent meteorological observations for station 44034


Conditions at 44034 as of
(1:04 am EDT)
0504 GMT on 06/15/2024:
     

Click on the graph icon in the table below to see a time series plot of the last five days of that observation.

5-day plot - Wind Direction Wind Direction (WDIR):SSE ( 160 deg true )
5-day plot - Wind Speed Wind Speed (WSPD):3.0 m/s
5-day plot - Wind Gust Wind Gust (GST):4.0 m/s
5-day plot - Wave Height Wave Height (WVHT): 1.1 m
5-day plot - Dominant Wave Period Dominant Wave Period (DPD): 6 sec
5-day plot - Atmospheric Pressure Atmospheric Pressure (PRES):1009.9 mb
5-day plot - Air Temperature Air Temperature (ATMP): 11.4 °C
5-day plot - Visibility Visibility (VIS) (0 to 1.6 nmi): 3.0 km
5-day plot - Wind Chill Wind Chill (CHILL): 10.2 °C
5-day plot - Wind Speed at 10 Meters Wind Speed at 10 meters (WSPD10M): 4 m/s
5-day plot - Wind Speed at 20 Meters Wind Speed at 20 meters (WSPD20M): 4 m/s
5-day plot -  Wind Speed, Wind Gust and Atmospheric Pressure Combined plot of Wind Speed, Gust, and Air Pressure
Previous observations
TIME
(EDT)
5-day plot - Wind Direction
WDIR
 
5-day plot - Wind Speed
WSPD
m/s
5-day plot - Wind Gust
GST
m/s
5-day plot - Wave Height
WVHT
m
5-day plot - Dominant Wave Period
DPD
sec
5-day plot - Average Wave Period
APD
sec
5-day plot - Mean Wave Direction
MWD
 
5-day plot - Atmospheric Pressure
PRES
mb
5-day plot - Pressure Tendency
PTDY
mb
5-day plot - Air Temperature
ATMP
°C
5-day plot - Water Temperature
WTMP
°C
5-day plot - Dew Point
DEWP
°C
5-day plot - Salinity
SAL
psu
5-day plot - Visibility
VIS
km
5-day plot - Tide (above MLLW)
TIDE
m
2024-06-15 12:04 am S 2.0 3.0 1.3 6--1010.2- 11.6--- 3.0-
2024-06-14 11:04 pmSSW 3.0 4.0 1.3 6--1009.9- 11.7--- 3.0-
2024-06-14 10:04 pm S 3.0 4.0 1.3 6--1010.0- 11.8--- 3.0-
2024-06-14 09:04 pm SW 5.0 6.0 1.2 6--1010.1- 13.0--- 3.0-
2024-06-14 08:04 pmSSW 7.0 9.0 1.3 6--1009.6- 12.7--- 3.0-
2024-06-14 07:04 pm S 5.0 6.0 1.4 6--1008.9- 12.6--- 3.0-
2024-06-14 06:04 pm S 5.0 7.0 1.5 6--1008.9- 12.6--- 3.0-
2024-06-14 05:04 pm S 6.0 8.0 1.6 6--1008.6- 12.7--- 3.0-
2024-06-14 04:04 pmSSW 8.0 9.0 1.5 6--1009.1- 13.0--- 3.0-
2024-06-14 03:04 pmSSW 8.0 9.0 1.5 6--1009.2- 12.9--- 3.0-
2024-06-14 02:04 pmSSW 7.0 9.0 1.4 6--1009.8- 13.0--- 3.0-
2024-06-14 01:04 pmSSW 7.0 8.0 1.5 6--1010.4- 12.9--- 3.0-
2024-06-14 12:04 pm SW 5.0 6.0 1.4 6--1010.9- 12.6--- 3.0-
2024-06-14 11:04 amSSW 7.0 8.0 1.5 6--1010.7- 12.6--- 3.0-
2024-06-14 10:04 amSSW 8.0 9.0 1.3 5--1010.4- 12.8--- 3.0-
2024-06-14 09:04 amSSW 7.0 8.0 1.2 6--1010.5- 12.7--- 3.0-
2024-06-14 08:04 amSSW 9.0 11.0 1.3 5--1010.1- 13.0--- 2.6-
2024-06-14 07:04 amSSW 9.0 10.0 1.2 5--1010.2- 12.9--- 1.9-
2024-06-14 06:04 amSSW 8.0 10.0 1.0 5--1010.2- 12.9--- 2.2-
2024-06-14 05:04 amSSW 8.0 10.0 1.0 5--1009.9- 12.8--- 3.0-
2024-06-14 04:04 amSSW 8.0 9.0 0.9 5--1009.9- 13.1--- 3.0-
2024-06-14 03:04 amSSW 8.0 10.0 0.7 5--1010.3- 13.0--- 3.0-
2024-06-14 02:04 amSSW 7.0 8.0 0.7 4--1011.3- 12.9--- 3.0-

Disclaimer: Ocean current directions are reported to the nearest 10 degrees and speeds are measured to the nearest whole centimeter per second.

Ocean Current Data for 44034

Unit of Measure:   Time Zone:   
1:04 am EDT12:04 am EDT11:04 pm EDT
Depth
m
Dir
°
Speed
cm/s
Dir
°
Speed
cm/s
Dir
°
Speed
cm/s
2 260 11.0210 29.0190 12.0
10 80 12.0230 5.0230 10.0
14 70 9.0230 7.0200 10.0
18 70 11.0240 6.0190 8.0
22 80 8.0230 6.0180 11.0
26 90 7.0220 5.0180 10.0
30 90 8.0220 5.0180 11.0
34 80 8.0250 5.0180 10.0
38 60 7.0270 6.0190 10.0
42 50 6.0280 8.0210 11.0
46 40 6.0280 9.0210 11.0
50 30 7.0280 9.0210 11.0
54 30 9.0280 9.0220 11.0
58 20 11.0290 9.0220 11.0
62 10 12.0280 7.0230 11.0
66 10 12.0260 7.0210 11.0
70 10 10.0260 4.0200 10.0
74 20 8.0300 1.0190 10.0
78 40 7.0 60 3.0180 10.0
82 60 9.0 70 5.0170 10.0
86 70 10.0 70 5.0170 10.0
90 70 9.0 70 6.0150 9.0

Previous (up to 48) reports of ocean current data for 44034

Ocean Current Stick Plots are available in metric units only:

All Instruments - 1-day plot - ocean current 1-day plot     3-day plot - ocean current 3-day plot     5-day plot - ocean current 5-day plot